Date String (YYYY-MM-DD hh:mm:ss) UTC,Instrument flags,Ambient pressure (hPa),Sample flow (lpm),Bypass flow (lpm),Sample temperature (°C),Ambient temperature (°C),ASC tube jacket temperature (°C),LED temperature (°C),Box temperature (°C),Sample RH (%),Span deviation,Mass concentration (μg/m³),Mass concentration (μg/m³),Mass concentration (μg/m³)
DateTimeUTC,F1_M11,P_M11,Q1_M11,Q2_M11,T1_M11,T2_M11,T3_M11,T4_M11,T5_M11,U1_M11,ZSPAN_M11,X0_M11,X2_M11,X1_M11
2022-02-21 21:00:00,,0813.7,5.00,0.00,22.6,22.4,00.0,31.5,24.4,11.1,0001.8,0013.15,0006.36,0005.51
2022-02-21 21:01:00,,0814.0,4.99,0.00,22.6,22.3,00.0,31.5,24.3,11.0,0001.8,0012.63,0006.36,0005.50
2022-02-21 21:02:00,,0813.9,5.00,0.00,22.5,22.2,00.0,31.5,24.3,11.1,0001.6,0012.66,0006.40,0005.51
2022-02-21 21:03:00,,0813.7,5.00,0.00,22.5,22.1,00.0,31.5,24.3,11.1,0001.5,0012.82,0006.43,0005.53
2022-02-21 21:04:00,,0813.7,5.01,0.00,22.5,22.0,00.0,31.5,24.3,10.9,0001.2,0012.80,0006.42,0005.53
2022-02-21 21:05:00,,0813.8,5.00,0.00,22.5,22.0,00.0,31.5,24.2,10.9,0001.3,0012.82,0006.46,0005.54
2022-02-21 21:06:00,,0813.8,5.00,0.00,22.5,21.9,00.0,31.5,24.2,10.9,0001.6,0012.50,0006.50,0005.54
2022-02-21 21:07:00,,0813.9,5.00,0.00,22.5,21.9,00.0,31.5,24.2,11.0,0001.7,0012.66,0006.52,0005.54
2022-02-21 21:08:00,,0813.9,5.00,0.00,22.4,21.9,00.0,31.5,24.2,11.0,0001.6,0012.93,0006.51,0005.53
2022-02-21 21:09:00,,0814.1,5.00,0.00,22.4,21.8,00.0,31.5,24.2,11.0,0001.3,0013.40,0006.53,0005.54
2022-02-21 21:10:00,,0814.3,5.01,0.00,22.4,21.8,00.0,31.5,24.1,11.1,0001.5,0013.49,0006.53,0005.54
2022-02-21 21:11:00,,0814.2,5.01,0.00,22.4,21.8,00.0,31.5,24.1,11.1,0001.5,0013.28,0006.51,0005.55
2022-02-21 21:12:00,,0814.2,4.99,0.00,22.4,21.8,00.0,31.5,24.1,11.0,0001.7,0013.76,0006.54,0005.57
2022-02-21 21:13:00,,0814.2,4.99,0.00,22.3,21.7,00.0,31.5,24.1,10.9,0001.9,0013.98,0006.53,0005.56
2022-02-21 21:14:00,,0814.0,5.01,0.00,22.3,21.6,00.0,31.4,24.0,10.9,0001.8,0013.74,0006.51,0005.55
2022-02-21 21:15:00,,0813.9,4.99,0.00,22.3,21.6,00.0,31.4,24.0,10.9,0001.8,0013.80,0006.54,0005.56
2022-02-21 21:16:00,,0814.0,5.01,0.00,22.3,21.6,00.0,31.4,24.0,11.0,0001.8,0013.73,0006.50,0005.56
2022-02-21 21:17:00,,0814.0,4.99,0.00,22.3,21.6,00.0,31.4,24.0,10.9,0001.4,0013.52,0006.43,0005.55
2022-02-21 21:18:00,,0814.0,5.00,0.00,22.2,21.5,00.0,31.4,23.9,10.8,0001.4,0013.34,0006.40,0005.54
2022-02-21 21:19:00,,0814.0,5.01,0.00,22.2,21.5,00.0,31.4,23.9,10.9,0001.4,0012.70,0006.38,0005.54
2022-02-21 21:20:00,,0814.3,4.99,0.00,22.2,21.5,00.0,31.4,23.9,10.9,0001.4,0012.70,0006.39,0005.54
2022-02-21 21:21:00,,0814.2,5.00,0.00,22.2,21.5,00.0,31.3,23.9,10.8,0001.3,0012.30,0006.44,0005.54
2022-02-21 21:22:00,,0814.0,5.02,0.00,22.2,21.4,00.0,31.3,23.8,10.8,0001.4,0012.79,0006.50,0005.55
2022-02-21 21:23:00,,0814.2,5.00,0.00,22.2,21.6,00.0,31.3,23.9,10.8,0001.1,0012.55,0006.53,0005.55
2022-02-21 21:24:00,,0814.2,4.99,0.00,22.3,22.3,00.0,31.4,24.1,10.7,0000.7,0012.40,0006.53,0005.55
2022-02-21 21:25:00,,0814.1,5.00,0.00,22.4,22.9,00.0,31.4,24.4,10.6,0000.9,0012.18,0006.56,0005.57
2022-02-21 21:26:00,,0814.1,5.01,0.00,22.5,22.8,00.0,31.4,24.5,10.6,0000.6,0012.05,0006.57,0005.59
2022-02-21 21:27:00,,0814.1,4.98,0.00,22.5,22.7,00.0,31.4,24.4,10.6,0000.1,0011.89,0006.54,0005.59
2022-02-21 21:28:00,,0814.1,5.00,0.00,22.5,22.5,00.0,31.4,24.4,10.6,0000.1,0011.92,0006.52,0005.59
2022-02-21 21:29:00,,0814.4,5.00,0.00,22.5,22.4,00.0,31.4,24.3,10.6,-000.4,0012.48,0006.57,0005.60
2022-02-21 21:30:00,,0814.3,5.00,0.00,22.5,22.2,00.0,31.5,24.3,10.6,-000.6,0013.97,0006.61,0005.60
2022-02-21 21:31:00,,0814.2,5.01,0.00,22.5,22.1,00.0,31.5,24.2,10.6,-000.3,0014.09,0006.61,0005.60
2022-02-21 21:32:00,,0814.2,5.01,0.00,22.5,22.0,00.0,31.5,24.2,10.5,-000.6,0014.13,0006.62,0005.60
2022-02-21 21:33:00,,0814.4,4.99,0.00,22.4,21.9,00.0,31.5,24.1,10.4,-001.0,0013.85,0006.55,0005.59
2022-02-21 21:34:00,,0814.2,5.00,0.00,22.4,21.9,00.0,31.4,24.1,10.4,-000.8,0014.56,0006.58,0005.59
2022-02-21 21:35:00,,0814.2,5.00,0.00,22.4,21.8,00.0,31.4,24.1,10.3,-000.7,0014.71,0006.56,0005.58
2022-02-21 21:36:00,,0814.3,5.01,0.00,22.3,21.7,00.0,31.4,24.0,10.4,-001.0,0014.76,0006.53,0005.57
2022-02-21 21:37:00,,0814.3,4.99,0.00,22.3,21.7,00.0,31.4,24.0,10.4,-000.5,0014.68,0006.49,0005.56
2022-02-21 21:38:00,,0814.3,5.00,0.00,22.3,21.6,00.0,31.4,24.0,10.3,-000.0,0015.11,0006.52,0005.56
2022-02-21 21:39:00,,0814.3,5.00,0.00,22.2,21.6,00.0,31.4,23.9,10.2,-000.2,0015.42,0006.57,0005.58
2022-02-21 21:40:00,,0814.3,5.00,0.00,22.2,21.6,00.0,31.4,23.9,10.3,0000.3,0015.38,0006.62,0005.60
2022-02-21 21:41:00,,0814.3,4.99,0.00,22.2,21.5,00.0,31.4,23.9,10.3,0000.7,0014.46,0006.64,0005.62
2022-02-21 21:42:00,,0814.4,5.01,0.00,22.2,21.5,00.0,31.4,23.9,10.3,0000.4,0013.58,0006.62,0005.63
2022-02-21 21:43:00,,0814.4,4.99,0.00,22.2,21.5,00.0,31.3,23.9,10.3,0000.5,0013.74,0006.55,0005.63
2022-02-21 21:44:00,,0814.4,5.00,0.00,22.3,21.9,00.0,31.4,24.0,10.2,0000.7,0013.87,0006.52,0005.63
2022-02-21 21:45:00,,0814.4,5.01,0.00,22.4,22.6,00.0,31.4,24.3,10.1,0001.0,0013.94,0006.50,0005.64
2022-02-21 21:46:00,,0814.4,4.99,0.00,22.5,23.1,00.0,31.4,24.5,10.0,0001.1,0013.58,0006.48,0005.64
2022-02-21 21:47:00,,0814.4,5.01,0.00,22.6,22.9,00.0,31.5,24.5,09.9,0001.5,0013.93,0006.45,0005.65
2022-02-21 21:48:00,,0814.4,5.00,0.00,22.6,22.7,00.0,31.5,24.4,09.9,0000.9,0014.02,0006.49,0005.66
2022-02-21 21:49:00,,0814.5,5.00,0.00,22.5,22.5,00.0,31.5,24.3,09.8,0000.5,0013.92,0006.52,0005.65
2022-02-21 21:50:00,,0815.0,5.00,0.00,22.5,22.3,00.0,31.5,24.3,09.9,0000.7,0013.70,0006.50,0005.65
2022-02-21 21:51:00,,0814.9,5.00,0.00,22.5,22.2,00.0,31.5,24.2,10.0,0000.5,0014.28,0006.50,0005.65
2022-02-21 21:52:00,,0814.9,5.02,0.00,22.4,22.1,00.0,31.5,24.2,10.1,0000.5,0014.22,0006.48,0005.65
2022-02-21 21:53:00,,0814.9,4.99,0.00,22.4,22.0,00.0,31.5,24.1,10.0,0000.4,0014.12,0006.48,0005.63
2022-02-21 21:54:00,,0814.8,5.00,0.00,22.4,21.9,00.0,31.5,24.1,10.0,0000.5,0014.08,0006.51,0005.65
2022-02-21 21:55:00,,0815.0,5.01,0.00,22.4,21.8,00.0,31.4,24.0,10.0,0000.6,0013.25,0006.55,0005.67
2022-02-21 21:56:00,,0814.7,4.98,0.00,22.3,21.7,00.0,31.4,24.0,10.0,0000.2,0013.17,0006.53,0005.66
2022-02-21 21:57:00,,0814.8,5.01,0.00,22.3,21.7,00.0,31.4,24.0,10.0,-000.1,0013.81,0006.58,0005.67
2022-02-21 21:58:00,,0814.6,4.99,0.00,22.3,21.6,00.0,31.4,24.0,10.0,0000.1,0013.74,0006.65,0005.68
2022-02-21 21:59:00,,0814.6,4.99,0.00,22.2,21.6,00.0,31.4,23.9,10.0,0000.2,0013.68,0006.65,0005.68
